Location: Unspecified
(52.3052°N, 0.0000°E)
Time: 10:33:03
(UTC+00:00)

TITAN 4B DEB - Visible Passes

Search period start: 04 April 2026 00:00
Search period end: 14 April 2026 00:00
Orbit: 553 x 632 km, 68.0° (Epoch: 28 March)

Date Brightness Start Highest point End Pass type
(mag) Time Alt. Az. Time Alt. Az. Time Alt. Az.
4 Apr ? 01:36:16 26° NNW 01:36:16 26° NNW 01:39:05 10° NNE visible
4 Apr ? 03:14:34 10° NNW 03:15:46 11° NNW 03:16:59 10° N visible
5 Apr ? 00:08:01 19° NE 00:08:01 19° NE 00:09:12 10° NE visible
5 Apr ? 01:44:34 21° NNW 01:44:34 21° NNW 01:47:45 10° NNE visible
6 Apr ? 00:16:17 24° NNE 00:16:17 24° NNE 00:18:01 10° NNE visible
6 Apr ? 01:52:50 16° NW 01:53:39 17° NNW 01:56:21 10° NNE visible
7 Apr ? 00:24:32 27° N 00:24:32 27° N 00:26:45 10° NNE visible
7 Apr ? 02:01:05 11° NW 02:02:49 14° NNW 02:04:55 10° N visible
7 Apr ? 22:56:11 13° NE 22:56:11 13° NE 22:56:37 10° NE visible
8 Apr ? 00:32:43 27° NNW 00:32:43 27° NNW 00:35:27 10° NNE visible
8 Apr ? 02:10:39 10° NW 02:12:02 11° NNW 02:13:25 10° N visible
8 Apr ? 23:04:18 19° NE 23:04:18 19° NE 23:05:32 10° NE visible
9 Apr ? 00:40:50 22° NW 00:40:50 22° NW 00:44:06 10° NNE visible
9 Apr ? 04:01:04 10° N 04:02:11 11° NNE 04:03:18 10° NNE visible
9 Apr ? 23:12:21 27° NNE 23:12:21 27° NNE 23:14:21 10° NNE visible
10 Apr ? 00:48:53 16° NW 00:49:55 17° NNW 00:52:44 10° NNE visible
10 Apr ? 04:09:30 10° N 04:11:25 13° NNE 04:13:19 10° NE visible
10 Apr ? 21:43:46 10° NE 21:43:46 10° NE 21:43:50 10° NE visible
10 Apr ? 23:20:18 35° N 23:20:18 35° N 23:23:06 10° NNE visible
11 Apr ? 00:56:50 10° WNW 00:59:04 14° NNW 01:01:18 10° N visible
11 Apr ? 04:18:03 10° NNW 04:20:35 16° NNE 04:23:09 10° ENE visible
11 Apr ? 21:51:35 19° NE 21:51:35 19° NE 21:52:54 10° NE visible
11 Apr ? 23:28:06 32° NW 23:28:06 32° NW 23:31:48 10° NNE visible
12 Apr ? 01:06:44 10° NW 01:08:16 12° NNW 01:09:48 10° N visible
12 Apr ? 04:26:38 10° NNW 04:29:43 20° NNE 04:32:49 10° E visible
12 Apr ? 21:59:11 38° NE 21:59:11 38° NE 22:01:50 10° NE visible
12 Apr ? 23:35:41 20° WNW 23:37:05 24° NW 23:40:27 10° NNE visible
13 Apr ? 01:17:00 10° NNW 01:17:31 10° NNW 01:18:02 10° N visible
13 Apr ? 02:57:29 10° N 02:58:25 11° NNE 02:59:20 10° NNE visible
13 Apr ? 20:29:58 12° ENE 20:29:58 12° ENE 20:30:36 10° ENE visible
13 Apr ? 22:06:26 76° WNW 22:06:32 77° NW 22:10:40 10° NE visible
13 Apr ? 23:43:14 10° WNW 23:46:10 18° NNW 23:49:05 10° NNE visible
